Home > Weather > Dushanbe > Past weeks

Flag for Tajikistan Past Weather in Dushanbe, Tajikistan — Yesterday and Last 2 Weeks

Now
82 °F

Clear.


Feels Like: 82 °F
Forecast: 74 / 98 °F
Wind: 1 mph from North

Location: Dushanbe Airport

Current Time: Jun 29, 2016 at 8:56:26 AM

Latest Report: Jun 29, 2016 at 8:30 AM


Visibility: N/A

Pressure: 29.86 "Hg (27.17 "Hg at 832m altitude)

Humidity: 42%

Dew Point: 57 °F

Location of DushanbeLocation

Past Weather in Dushanbe — Graph

°F

Dushanbe Temperature Yesterday

Maximum temperature yesterday: 91 °F (at 2:30 PM)
Minimum temperature yesterday: 70 °F (at 4:30 AM)
Average temperature yesterday: 81 °F

High & Low Weather Summary for the Past Weeks

 TemperatureHumidityPressure
High97 °F (Jun 14, 11:00 AM)88% (Jun 15, 8:30 PM)30.07 "Hg (Jun 15, 8:30 PM)
Low59 °F (Jun 17, 5:30 AM)13% (Jun 25, 3:00 PM)29.71 "Hg (Jun 14, 10:30 AM)
Average79 °F41%29.87 "Hg
* Reported Jun 14 7:00 AM — Jun 29 7:30 AM, Dushanbe, Weather by CustomWeather, © 2016

Note: Actual official high and low records may vary slightly from our data, if they occured in-between our weather recording intervals... More about our weather records

Advertising

Dushanbe Weather History for the Previous 24 Hours

Scroll right to see more
 ConditionsComfort  
Time TempWeatherWind HumidityBarometerVisibility
7:30 AM
Wed, Jun 29
75 °FClear.1 mph57%29.86 "Hg4 mi
7:00 AM75 °FClear.1 mph57%29.86 "HgN/A
6:30 AM72 °FClear.No wind65%29.86 "Hg4 mi
6:00 AM70 °FClear.1 mph60%29.86 "HgN/A
5:30 AM68 °FClear.1 mph64%29.86 "HgN/A
5:00 AM68 °FClear.1 mph60%29.86 "HgN/A
4:30 AM70 °FClear.1 mph60%29.83 "HgN/A
4:00 AM72 °FClear.1 mph57%29.83 "HgN/A
3:30 AM70 °FClear.1 mph64%29.83 "HgN/A
3:00 AM70 °FClear.3 mph64%29.83 "HgN/A
2:30 AM72 °FClear.No wind57%29.83 "Hg6 mi
2:00 AM72 °FClear.1 mph61%29.83 "HgN/A
1:30 AM72 °FClear.3 mph61%29.83 "HgN/A
1:00 AM72 °FClear.1 mph57%29.83 "HgN/A
12:30 AM75 °FClear.1 mph47%29.83 "HgN/A
12:00 AM72 °FClear.1 mph57%29.83 "HgN/A
11:30 PM
Tue, Jun 28
73 °FClear.3 mph53%29.83 "HgN/A
11:00 PM75 °FClear.3 mph47%29.83 "HgN/A
10:30 PM79 °FClear.3 mph42%29.83 "HgN/A
10:00 PM77 °FClear.3 mph47%29.83 "HgN/A
9:30 PM79 °FClear.3 mph45%29.83 "HgN/A
9:00 PM79 °FClear.6 mph45%29.80 "HgN/A
8:30 PM82 °FClear.3 mph37%29.80 "Hg6 mi
8:00 PM82 °FClear.3 mph40%29.80 "Hg5 mi
7:30 PM84 °FClear.6 mph35%29.80 "HgN/A
7:00 PM86 °FClear.6 mph33%29.80 "HgN/A
6:30 PM90 °FClear.6 mph27%29.80 "HgN/A
6:00 PM90 °FClear.3 mph27%29.80 "HgN/A
5:30 PM91 °FPassing clouds.6 mph24%29.77 "HgN/A
5:00 PM91 °FPassing clouds.6 mph26%29.80 "HgN/A
4:30 PM91 °FPassing clouds.6 mph26%29.80 "HgN/A
4:00 PM91 °FPassing clouds.6 mph26%29.80 "HgN/A
3:30 PM91 °FPassing clouds.3 mph24%29.80 "HgN/A
3:00 PM91 °FPassing clouds.6 mph24%29.83 "HgN/A
2:30 PM91 °FPassing clouds.6 mph26%29.83 "HgN/A
2:00 PM90 °FPassing clouds.3 mph26%29.83 "HgN/A
1:30 PM90 °FPassing clouds.3 mph27%29.86 "HgN/A
1:00 PM90 °FPassing clouds.6 mph26%29.86 "HgN/A
12:30 PM90 °FPassing clouds.1 mph24%29.86 "HgN/A
12:00 PM88 °FScattered clouds.6 mph27%29.89 "HgN/A
11:30 AM86 °FPassing clouds.8 mph29%29.89 "HgN/A
11:00 AM86 °FScattered clouds.6 mph29%29.89 "HgN/A
10:30 AM84 °FScattered clouds.6 mph29%29.89 "HgN/A
10:00 AM84 °FScattered clouds.8 mph29%29.89 "HgN/A
9:30 AM82 °FScattered clouds.3 mph35%29.89 "Hg6 mi
9:00 AM82 °FScattered clouds.1 mph37%29.89 "Hg6 mi
8:30 AM81 °FScattered clouds.3 mph39%29.89 "Hg6 mi
8:00 AM79 °FPassing clouds.3 mph42%29.89 "Hg5 mi
Weather by CustomWeather, © 2016

See weather overviewHow to use our weather pages